Wetterdaten: aktuell Dienstag, 11.12.2018 22:05
Datum Zeit Wetterhtte Helligkeit Boden -10cm Boden 5cm Temp S Luftfeuchte Luftdruck Regen Wind Richtung Richtung Sonnenschein UV Taupunkt Windchill Windben
11.12.2018 22:05 4,7 C -21,3 C 5,6 C 4,4 C 3,4 C 84 % 1019,5 hPa 0,0 l/m 9,6 km/h NW 319 0 min 0,0 UV-I 2,2 C 2,0 C 14,3 km/h
11.12.2018 22:00 4,7 C -21,3 C 5,6 C 4,5 C 3,5 C 84 % 1019,5 hPa 0,0 l/m 8,8 km/h W-NW 296 0 min 0,0 UV-I 2,2 C 2,6 C 8,2 km/h
11.12.2018 21:55 4,7 C -21,3 C 5,6 C 4,4 C 3,5 C 84 % 1019,6 hPa 0,0 l/m 8,8 km/h NW 319 0 min 0,0 UV-I 2,2 C 2,6 C 16,7 km/h
11.12.2018 21:50 4,7 C -21,3 C 5,6 C 4,5 C 3,4 C 84 % 1019,6 hPa 0,0 l/m 9,3 km/h W 274 0 min 0,0 UV-I 2,2 C 2,3 C 11,7 km/h
11.12.2018 21:45 4,6 C -21,3 C 5,6 C 4,5 C 3,4 C 84 % 1019,6 hPa 0,0 l/m 8,8 km/h NW 319 0 min 0,0 UV-I 2,1 C 2,5 C 12,2 km/h
11.12.2018 21:40 4,7 C -21,3 C 5,6 C 4,5 C 3,4 C 84 % 1019,6 hPa 0,0 l/m 10,1 km/h NW 319 0 min 0,0 UV-I 2,2 C 1,7 C 8,2 km/h
11.12.2018 21:35 4,7 C -21,3 C 5,6 C 4,5 C 3,4 C 84 % 1019,4 hPa 0,0 l/m 12,5 km/h NW 319 0 min 0,0 UV-I 2,2 C 0,1 C 9,0 km/h
11.12.2018 21:30 4,7 C -21,3 C 5,6 C 4,4 C 3,4 C 84 % 1019,4 hPa 0,0 l/m 11,7 km/h NW 319 0 min 0,0 UV-I 2,2 C 0,6 C 10,6 km/h
11.12.2018 21:25 4,7 C -21,3 C 5,6 C 4,5 C 3,4 C 84 % 1019,4 hPa 0,0 l/m 11,2 km/h N-NW 341 0 min 0,0 UV-I 2,2 C 0,9 C 15,7 km/h
11.12.2018 21:20 4,7 C -21,3 C 5,6 C 4,5 C 3,5 C 83 % 1019,4 hPa 0,0 l/m 11,9 km/h O-NO 71 0 min 0,0 UV-I 2,1 C 0,5 C 12,7 km/h
11.12.2018 21:15 4,7 C -21,3 C 5,6 C 4,5 C 3,5 C 83 % 1019,4 hPa 0,0 l/m 11,4 km/h NW 319 0 min 0,0 UV-I 2,1 C 0,8 C 15,1 km/h
11.12.2018 21:10 4,8 C -21,3 C 5,6 C 4,6 C 3,6 C 84 % 1019,4 hPa 0,0 l/m 10,4 km/h NW 319 0 min 0,0 UV-I 2,3 C 1,6 C 15,1 km/h
11.12.2018 21:05 4,7 C -21,3 C 5,6 C 4,6 C 3,5 C 83 % 1019,4 hPa 0,0 l/m 8,8 km/h N-NW 341 0 min 0,0 UV-I 2,1 C 2,6 C 17,8 km/h
11.12.2018 21:00 4,7 C -21,3 C 5,6 C 4,6 C 3,5 C 84 % 1019,4 hPa 0,0 l/m 9,0 km/h N-NO 26 0 min 0,0 UV-I 2,2 C 2,5 C 14,3 km/h
11.12.2018 20:55 4,7 C -21,3 C 5,6 C 4,6 C 3,5 C 84 % 1019,6 hPa 0,0 l/m 9,3 km/h NW 319 0 min 0,0 UV-I 2,2 C 2,3 C 3,2 km/h
11.12.2018 20:50 4,6 C -21,3 C 5,6 C 4,5 C 3,4 C 84 % 1019,6 hPa 0,0 l/m 6,6 km/h NW 319 0 min 0,0 UV-I 2,1 C 4,4 C 17,5 km/h
11.12.2018 20:45 4,5 C -21,3 C 5,6 C 4,5 C 3,4 C 84 % 1019,6 hPa 0,0 l/m 4,0 km/h W 274 0 min 0,0 UV-I 2,0 C 4,5 C 15,9 km/h
11.12.2018 20:40 4,5 C -21,3 C 5,6 C 4,5 C 3,4 C 84 % 1019,6 hPa 0,0 l/m 3,7 km/h N 4 0 min 0,0 UV-I 2,0 C 4,5 C 6,1 km/h
11.12.2018 20:35 4,5 C -21,3 C 5,6 C 4,5 C 3,4 C 84 % 1019,1 hPa 0,0 l/m 5,0 km/h NO 49 0 min 0,0 UV-I 2,0 C 4,5 C 6,9 km/h
11.12.2018 20:30 4,5 C -21,3 C 5,6 C 4,5 C 3,4 C 84 % 1019,1 hPa 0,0 l/m 5,8 km/h W 274 0 min 0,0 UV-I 2,0 C 4,5 C 6,4 km/h
11.12.2018 20:25 4,5 C -21,3 C 5,6 C 4,6 C 3,4 C 84 % 1019,1 hPa 0,0 l/m 4,5 km/h N-NW 341 0 min 0,0 UV-I 2,0 C 4,5 C 15,7 km/h
11.12.2018 20:20 4,5 C -21,3 C 5,6 C 4,6 C 3,4 C 84 % 1019,1 hPa 0,0 l/m 3,5 km/h N-NW 341 0 min 0,0 UV-I 2,0 C 4,5 C 3,7 km/h
11.12.2018 20:15 4,5 C -21,3 C 5,6 C 4,6 C 3,4 C 83 % 1019,4 hPa 0,0 l/m 4,2 km/h SW 229 0 min 0,0 UV-I 1,9 C 4,5 C 0,0 km/h
11.12.2018 20:10 4,5 C -21,3 C 5,6 C 4,6 C 3,5 C 83 % 1019,4 hPa 0,0 l/m 6,1 km/h W 274 0 min 0,0 UV-I 1,9 C 4,5 C 8,5 km/h
11.12.2018 20:05 4,5 C -21,3 C 5,6 C 4,6 C 3,4 C 83 % 1019,4 hPa 0,0 l/m 5,3 km/h S-SO 161 0 min 0,0 UV-I 1,9 C 4,5 C 4,2 km/h
11.12.2018 20:00 4,5 C -21,3 C 5,6 C 4,6 C 3,4 C 83 % 1019,4 hPa 0,0 l/m 4,0 km/h W-SW 251 0 min 0,0 UV-I 1,9 C 4,5 C 6,1 km/h
11.12.2018 19:55 4,5 C -21,3 C 5,6 C 4,6 C 3,4 C 83 % 1019,2 hPa 0,0 l/m 4,0 km/h W 274 0 min 0,0 UV-I 1,9 C 4,5 C 6,4 km/h
11.12.2018 19:50 4,5 C -21,3 C 5,6 C 4,6 C 3,4 C 83 % 1019,2 hPa 0,0 l/m 3,5 km/h N-NO 26 0 min 0,0 UV-I 1,9 C 4,5 C 7,7 km/h
11.12.2018 19:45 4,5 C -21,3 C 5,6 C 4,6 C 3,4 C 83 % 1019,2 hPa 0,0 l/m 2,4 km/h W-SW 251 0 min 0,0 UV-I 1,9 C 4,5 C 4,5 km/h
11.12.2018 19:40 4,6 C -21,3 C 5,6 C 4,6 C 3,4 C 83 % 1019,2 hPa 0,0 l/m 2,9 km/h W 274 0 min 0,0 UV-I 2,0 C 4,6 C 0,0 km/h
11.12.2018 19:35 4,6 C -21,3 C 5,6 C 4,6 C 3,4 C 83 % 1018,9 hPa 0,0 l/m 4,8 km/h S-SW 206 0 min 0,0 UV-I 2,0 C 4,6 C 3,2 km/h
11.12.2018 19:30 4,7 C -21,3 C 5,6 C 4,6 C 3,5 C 83 % 1018,9 hPa 0,0 l/m 4,8 km/h S-SO 161 0 min 0,0 UV-I 2,1 C 4,7 C 3,7 km/h
11.12.2018 19:25 4,7 C -21,3 C 5,6 C 4,6 C 3,5 C 83 % 1018,9 hPa 0,0 l/m 4,2 km/h W 274 0 min 0,0 UV-I 2,1 C 4,7 C 10,4 km/h
11.12.2018 19:20 4,7 C -21,3 C 5,6 C 4,6 C 3,4 C 83 % 1018,9 hPa 0,0 l/m 4,8 km/h W-SW 251 0 min 0,0 UV-I 2,1 C 4,7 C 7,4 km/h
11.12.2018 19:15 4,7 C -21,3 C 5,6 C 4,7 C 3,4 C 82 % 1019,2 hPa 0,0 l/m 5,8 km/h W 274 0 min 0,0 UV-I 1,9 C 4,7 C 6,9 km/h
11.12.2018 19:10 4,7 C -21,3 C 5,6 C 4,6 C 3,4 C 82 % 1019,2 hPa 0,0 l/m 4,2 km/h W-NW 296 0 min 0,0 UV-I 1,9 C 4,7 C 5,0 km/h
11.12.2018 19:05 4,7 C -21,3 C 5,6 C 4,7 C 3,4 C 82 % 1019,2 hPa 0,0 l/m 3,2 km/h S 184 0 min 0,0 UV-I 1,9 C 4,7 C 4,8 km/h
11.12.2018 19:00 4,7 C -21,3 C 5,6 C 4,7 C 3,4 C 82 % 1019,2 hPa 0,0 l/m 4,2 km/h N-NO 26 0 min 0,0 UV-I 1,9 C 4,7 C 5,0 km/h
11.12.2018 18:55 4,7 C -21,3 C 5,6 C 4,7 C 3,5 C 82 % 1018,9 hPa 0,0 l/m 5,0 km/h NW 319 0 min 0,0 UV-I 1,9 C 4,7 C 6,9 km/h
11.12.2018 18:50 4,7 C -21,3 C 5,6 C 4,6 C 3,4 C 82 % 1018,9 hPa 0,0 l/m 4,2 km/h W-SW 251 0 min 0,0 UV-I 1,9 C 4,7 C 0,0 km/h
11.12.2018 18:45 4,6 C -21,3 C 5,6 C 4,6 C 3,5 C 82 % 1018,9 hPa 0,0 l/m 4,5 km/h W 274 0 min 0,0 UV-I 1,8 C 4,6 C 4,8 km/h
_ Min-Zeit 02:35 22:05 11:35 02:35 02:30 14:05 05:15 - 18:35 - - - 22:05 01:30 01:10 20:15
Minimum _ 3,6 C -21,3 C 5,2 C 3,6 C 2,2 C 77 % 1015,2 hPa - 1,9 km/h - - - 0,0 UV-I 1,5 C -2,5 C 0,0 km/h
_ Max-Zeit 12:45 11:35 22:05 13:10 11:45 04:30 21:55 22:05 11:00 - - 22:05 11:40 12:25 17:45 12:40
Maximum _ 5,9 C 14,6 C 5,6 C 5,3 C 7,2 C 87 % 1019,6 hPa 0,0 l/m 16,5 km/h
N-NO
- - 0 min 0,1 UV-I 2,7 C 4,9 C 37,2 km/h
W-SW
Durchschnitt _ 4,7 C -16,6 C 5,4 C 4,4 C 3,7 C 83 % 1017,2 hPa #0,0 l/m 10,0 km/h W - #0 min. 0,1 UV-I 2,0 C 1,7 C 13,2 km/h